Погода в Сузуне

Россия / Новосибирская область     53°47′20″N   82°18′58″E
темп.,
°C
ветер,
м/с
пор.,
м/с
влажн.,
%
обл.,
%
осадки,
мм/ч
давл.,
гПа
погр.,
м
19 сентября, вс
вс1901:00+5юз267139 0.0 1012137
04:00+6ююз2866100 0.0 1011237
07:00+4ю3107347 0.0 1010240
10:00+10ю41148100 0.0 1007597
13:00+17ююз6103397 0.0 10051825
16:00+17зюз61131100 0.0 10022478
19:00+12з595196 0.0 10051352
22:00+9з4955100 0.0 10071459
20 сентября, пн
пн2001:00+7з3964100 0.1 1008611
04:00+6зюз497971 0.3 1009499
07:00+4зюз5128193 0.3 1012780
10:00+6зюз61261100 0.0 10131498
13:00+8зюз71250100 0.1 10131807
16:00+9зюз61145100 0.1 10132076
19:00+7зюз51060100 0.2 10131474
22:00+5зюз4978100 0.3 10141058
21 сентября, вт
вт2101:00+3зюз41084100 0.6 1014552
04:00+1з399375 0.0 1015442
07:00+2зюз4991100 0.1 1016507
10:00+3зюз5108299 0.0 1017631
13:00+4зюз51091100 0.1 1018893
16:00+5зсз4983100 0.3 1019914
19:00+6зсз366897 0.3 1020945
22:00+3сз2480100 0.0 1021181
22 сентября, ср
ср2201:00+1з249650 0.0 102196
04:00+1з259691 0.0 1021270
07:00+1зюз2495100 0.0 1022333
10:00+3зюз2486100 0.1 1022568
13:00+5зюз356698 0.3 10221092
16:00+7зюз4549100 0.1 10211635
19:00+6з3551100 0.1 1021537
22:00+2зсз2268100 0.0 102125
23 сентября, чт
чт2301:00+1з2273100 0.0 102135
04:00+1з1276100 0.0 102060
07:00+1юз2687100 0.0 1021342
10:00+2зюз3691100 0.1 1021458
13:00+4зюз4692100 0.4 1021592
16:00+3зсз2598100 0.7 1022254
19:00+2сз3693100 1.2 1024476
22:00+1сз3586100 0.0 1025569